Location: Unspecified
(0.0000°N, 0.0000°E)
Time: 16:13:58
(UTC+00:00)

Vanguard 1 - Pass Details

Date: 14 December 2017
Orbit: 650 x 3833 km, 34.2° (Epoch: 21 July)

Event Time Altitude Azimuth Distance (km) Brightness Sun altitude
Rises 18:49:31 0° 283° (WNW) 3,133 13.6 -12.5°
Reaches altitude 10° 18:52:23 10° 268° (W) 2,081 12.9 -13.2°
Maximum altitude 18:55:56 23° 214° (SW) 1,386 11.6 -14.0°
Drops below altitude 10° 18:59:39 10° 161° (SSE) 2,169 11.9 -14.8°
Sets 19:02:44 0° 145° (SE) 3,307 12.7 -15.5°
